Volver al catálogo

STARLINK-4400

ActivoComunicacionesSSO
NORAD 53468·PAYLOAD·🇺🇸 United States

Lanzado Aug 12, 2022 desde Vandenberg Space Force Base

Loading…

Próximos Pases (próximas 24 horas)

TLE

ActualizadoSource: CelesTrak SupGP

Época: Sep 15, 2026, 02:42 UTC

1 53468C 22099D   26258.11298611  .00076031  00000+0  46230-2 0  2581
2 53468  97.2846  12.2449 0001158  86.2584  77.7970 15.10506147    12

Sigue STARLINK-4400 en tiempo real con AllMySat

Download on the App Store